Starlink 5076

operational
NORAD ID: 55401 Int'l Des: 2023-014 Owner: SPXS Country: US Constellation: starlink
LEOCIRCULAR

Über Starlink 5076

Beschreibung wird geladen...

Live-Position

3D-Globus wird geladen...

Nächste Überflüge

Höhenverlauf

Altitude vs Time

uPlot chart will show altitude changes over time

Zweizeiliger Elementsatz

1 55401U 23014L 25302.55089221 .00000415 00000-0 42538-4 0 9995
2 55401 70.0009 35.0427 0003083 270.6633 89.4173 14.98334190152412
Epoch: 29. Okt. 2025 • Age: 14 hours

Aktueller Status

Höhe 594.8 km
Geschwindigkeit 7.56 km/s
Subsatellitenpunkt -67.55°S, 171.84°W
Startdatum 31. Jan. 2023
Alter 2.7 years
Typ internet

Technische Details

Klassifizierung Payload
Masse 305.00 kg
Trockenmasse 290.00 kg
Gesamtmasse 305.00 kg
Länge 0.20 m
Durchmesser 2.80 m
Spannweite 9.00 m
Form Box + pan
Hersteller SPXS
Bus-Typ Starlink
Phasenstatus In Orbit
Besitzer/Staat SPXS/US

Große Konstellationen

Loading constellations...